Location: Doschendorf
(50.0069°N, 11.0602°E)
Time: 08:15:19
(UTC+00:00)

Cosmos 1371 Rocket - Pass Details

Date: 17 November 2019
Orbit: 755 x 789 km, 74.0° (Epoch: 12 December)

Event Time Altitude Azimuth Distance (km) Brightness Sun altitude
Rises 17:07:57 0° 337° (NNW) 3,239 7.4 -15.6°
Reaches altitude 10° 17:10:23 10° 341° (NNW) 2,305 6.6 -16.0°
Maximum altitude 17:15:33 62° 62° (ENE) 853 3.9 -16.8°
Drops below altitude 10° 17:20:40 10° 144° (SE) 2,278 6.2 -17.6°
Enters shadow 17:22:53 - 147° (SSE) 3,132 6.9 -18.0°
